This demonstration page uses our WeatherBlox Daily Observations layout. Learn more.

Left ArrowRight Arrow

Hourly Observations for September 16, 2021

Temp ( °F °C ) Dew Point ( °F °C ) Humidity (%) Winds ( mph kmh ) Pressure ( in mb ) Visibility ( mi km ) Precip ( " mm )
12:15 am 00:15 undefined 55 13 55 13 100 100 undefined N/A N/A N/A N/A
12:35 am 00:35 undefined N/A N/A N/A undefined N/A N/A N/A N/A
12:55 am 00:55 undefined N/A N/A N/A undefined N/A N/A N/A N/A
1:15 am 01:15 undefined N/A N/A N/A undefined N/A N/A N/A N/A
1:35 am 01:35 undefined N/A N/A N/A undefined N/A N/A N/A N/A
1:55 am 01:55 undefined N/A N/A N/A undefined N/A N/A N/A N/A
2:15 am 02:15 undefined N/A N/A N/A undefined N/A N/A N/A N/A
2:35 am 02:35 undefined N/A N/A N/A undefined N/A N/A N/A N/A
2:55 am 02:55 undefined N/A N/A N/A undefined N/A N/A N/A N/A
3:15 am 03:15 undefined 54 12 54 12 100 100 NNE 3 6 30.08 1019 10 16 N/A
3:35 am 03:35 Clear 52 11 52 11 100 100 N N/A 30.09 1019 10 16 N/A
3:55 am 03:55 Clear 54 12 54 12 100 100 ENE 3 6 30.07 1018 10 16 N/A
4:15 am 04:15 Clear 54 12 54 12 100 100 N 3 6 30.07 1018 10 16 N/A
4:35 am 04:35 Clear 52 11 52 11 100 100 NNE 3 6 30.09 1019 10 16 N/A
4:55 am 04:55 Clear 52 11 52 11 100 100 N N/A 30.09 1019 10 16 N/A
5:15 am 05:15 Clear 52 11 52 11 100 100 N N/A 30.09 1019 10 16 N/A
5:35 am 05:35 Clear 52 11 52 11 100 100 N 3 6 30.10 1019 10 16 N/A
5:55 am 05:55 Clear 52 11 52 11 100 100 N N/A 30.10 1019 10 16 N/A
6:15 am 06:15 Mostly Cloudy 52 11 52 11 100 100 N 5 7 30.10 1019 2 2 N/A
6:35 am 06:35 Clear 52 11 52 11 100 100 N 6 9 30.11 1020 10 16 N/A
6:55 am 06:55 Clear 52 11 52 11 100 100 N 5 7 30.11 1020 5 8 N/A
7:15 am 07:15 Partly Cloudy 52 11 52 11 100 100 NNE 5 7 30.12 1020 10 16 N/A
7:35 am 07:35 Partly Cloudy 52 11 52 11 100 100 NNE 5 7 30.13 1020 10 16 N/A
7:55 am 07:55 Mostly Cloudy 54 12 54 12 100 100 NNE 3 6 30.12 1020 10 16 N/A
8:15 am 08:15 Partly Cloudy 55 13 55 13 100 100 N N/A 30.12 1020 7 11 N/A
8:35 am 08:35 Sunny 57 14 57 14 100 100 N N/A 30.12 1020 7 11 N/A
8:55 am 08:55 Sunny 59 15 59 15 100 100 N N/A 30.11 1020 10 16 N/A
9:15 am 09:15 Sunny 63 17 63 17 100 100 E 5 7 30.12 1020 10 16 N/A
9:35 am 09:35 Sunny 66 19 66 19 100 100 E 7 11 30.11 1020 10 16 N/A
9:55 am 09:55 Sunny 68 20 68 20 100 100 ESE 6 9 30.11 1020 10 16 N/A
10:15 am 10:15 Sunny 68 20 68 20 100 100 ESE 6 9 30.11 1020 10 16 N/A
10:35 am 10:35 Sunny 70 21 68 20 94 94 ESE 3 6 30.12 1020 10 16 N/A
10:55 am 10:55 Partly Cloudy 72 22 68 20 88 88 E 6 9 30.11 1020 10 16 N/A
11:15 am 11:15 Partly Cloudy 72 22 68 20 88 88 ESE 5 7 30.11 1020 10 16 N/A
11:35 am 11:35 Partly Cloudy 72 22 68 20 88 88 ESE 5 7 30.11 1020 10 16 N/A
11:55 am 11:55 Partly Cloudy 73 23 68 20 83 83 E 5 7 30.11 1020 10 16 N/A
12:15 pm 12:15 Partly Cloudy 73 23 68 20 83 83 E 5 7 30.11 1020 10 16 N/A
12:35 pm 12:35 Partly Cloudy 73 23 68 20 83 83 ESE 6 9 30.11 1020 10 16 N/A
12:55 pm 12:55 Cloudy 73 23 68 20 83 83 SE 7 11 30.10 1019 10 16 N/A
1:15 pm 13:15 Cloudy 73 23 68 20 83 83 E 7 11 30.10 1019 10 16 N/A
1:35 pm 13:35 Mostly Cloudy 73 23 70 21 89 89 ESE 3 6 30.10 1019 10 16 N/A
1:55 pm 13:55 Partly Cloudy 75 24 70 21 83 83 SE 6 9 30.09 1019 10 16 N/A
2:15 pm 14:15 Partly Cloudy 75 24 68 20 78 78 N N/A 30.08 1018 10 16 N/A
2:35 pm 14:35 Partly Cloudy 77 25 68 20 74 74 SE 6 9 30.06 1018 10 16 N/A
2:55 pm 14:55 Sunny 75 24 66 19 74 74 SE 5 7 30.06 1018 10 16 N/A
3:15 pm 15:15 Partly Cloudy 79 26 68 20 70 70 N N/A 30.05 1018 10 16 N/A
3:35 pm 15:35 Partly Cloudy 79 26 66 19 65 65 SSE 3 6 30.04 1017 10 16 N/A
3:55 pm 15:55 Partly Cloudy 79 26 66 19 65 65 S 8 13 30.04 1017 10 16 N/A
4:15 pm 16:15 Mostly Cloudy 81 27 68 20 66 66 SSE 3 6 30.04 1017 10 16 N/A
4:35 pm 16:35 Mostly Cloudy 81 27 66 19 62 62 SE 6 9 30.03 1017 10 16 N/A
4:55 pm 16:55 Mostly Cloudy 81 27 66 19 62 62 ESE 7 11 30.03 1017 10 16 N/A
5:15 pm 17:15 Mostly Cloudy 81 27 66 19 62 62 E 6 9 30.03 1017 10 16 N/A
5:35 pm 17:35 Mostly Cloudy 81 27 66 19 62 62 ESE 10 17 30.03 1017 10 16 N/A
5:55 pm 17:55 Partly Cloudy 79 26 66 19 65 65 E 6 9 30.03 1017 10 16 N/A
6:15 pm 18:15 Mostly Cloudy 77 25 66 19 69 69 E 7 11 30.03 1017 10 16 N/A
6:35 pm 18:35 Partly Cloudy 77 25 66 19 69 69 ESE 6 9 30.03 1017 10 16 N/A
6:55 pm 18:55 Sunny 77 25 66 19 69 69 ESE 6 9 30.03 1017 10 16 N/A
7:15 pm 19:15 Sunny 73 23 68 20 83 83 ESE 5 7 30.05 1018 10 16 N/A
7:35 pm 19:35 Sunny 72 22 68 20 88 88 ESE 5 7 30.05 1018 10 16 N/A
7:55 pm 19:55 Clear 68 20 68 20 100 100 E 5 7 30.06 1018 10 16 N/A
8:15 pm 20:15 Clear 66 19 66 19 100 100 E 5 7 30.07 1018 10 16 N/A
8:35 pm 20:35 Clear 68 20 66 19 94 94 E 6 9 30.07 1018 10 16 N/A
8:55 pm 20:55 Clear 68 20 66 19 94 94 ESE 5 7 30.07 1018 10 16 N/A
9:15 pm 21:15 Clear 68 20 66 19 94 94 ESE 6 9 30.08 1019 10 16 N/A
9:35 pm 21:35 Clear 68 20 66 19 94 94 ESE 5 7 30.09 1019 10 16 N/A
9:55 pm 21:55 Clear 68 20 66 19 94 94 ESE 5 7 30.09 1019 10 16 N/A
10:15 pm 22:15 Clear 66 19 66 19 100 100 SE 6 9 30.09 1019 10 16 N/A
10:35 pm 22:35 Clear 66 19 66 19 100 100 ESE 5 7 30.09 1019 10 16 N/A
10:55 pm 22:55 Clear 66 19 66 19 100 100 ESE 6 9 30.09 1019 10 16 N/A
11:15 pm 23:15 Clear 64 18 64 18 100 100 ESE 5 7 30.09 1019 10 16 N/A
11:35 pm 23:35 Clear 66 19 66 19 100 100 ESE 5 7 30.09 1019 10 16 N/A
11:55 pm 23:55 Clear 66 19 66 19 100 100 ESE 5 7 30.09 1019 10 16 N/A

Powered by AerisWeather